User: anonymous   Login
Location: Unspecified
(0.0000°N, 0.0000°E)
Time: 07:11:07
(UTC+00:00)
Language:

Milstar DFS 1 - Orbit

View from above orbital plane
View from above orbital plane
View from above satellite
View from above satellite

Ground track
Ground track

The orbit data is extracted from the following two-line orbital elements,

1 22988U 94009A   18135.62680796 0.00000000  00000-0  00000-0 0    06
2 22988  12.8299  60.1257 0004356 323.6762  36.2682  1.00270000    07
Epoch (UTC): 15 May 2018 15:02:36
Eccentricity: 0.0004356
inclination: 12.8299°
perigee height: 35768 km
apogee height: 35805 km
right ascension of ascending node: 60.1257°
argument of perigee: 323.6762°
revolutions per day: 1.00270000
mean anomaly at epoch: 36.2682°
orbit number at epoch: 0

The dashed part of the orbit path shows where the satellite is in the earth's shadow,  

DLR